QPF
0.00 0.00 0.00 0.00 0.01 0.00 0.00 0.00 0.00 0.00 0.00 0.00 0.00 0.00 0.00 0.00 0.00 0.00 0.00 0.00 0.00 0.00 0.00 0.00 0.00 0.00 0.00 0.00 0.00 0.00 0.00 0.00 0.00 0.00 0.00 0.00 0.00 0.00 0.00 0.00 0.00 0.00 0.00 0.00
0.00 0.00 0.00 0.00 0.00 0.00 0.02 0.03 0.01 0.00 0.00 0.00 0.00 0.00 0.00 0.00 0.00 0.00 0.00 0.00 0.00 0.00 0.00 0.00 0.00 0.00 0.00 0.00 0.00 0.00 0.00 0.00 0.00 0.00 0.00 0.00 0.00 0.00 0.00 0.00 0.00 0.00 0.00 0.00
0.00 0.00 0.00 0.00 0.00 0.00 0.00 0.00 0.00 0.00 0.00 0.00 0.00 0.00 0.00 0.00 0.00 0.00 0.00 0.00 0.00 0.01 0.02 0.01 0.00 0.00 0.00 0.00 0.00 0.00 0.00 0.00 0.00 0.00 0.00 0.00 0.00 0.00 0.00 0.00 0.00 0.00 0.00 0.02
0.00 0.00 0.01 0.01 0.00 0.00 0.02 0.00 0.00 0.00 0.00 0.00 0.00 0.00 0.00 0.00 0.00 0.00 0.00 0.00 0.00 0.02 0.03 0.04 0.00 0.00 0.00 0.00 0.00 0.00 0.00 0.00 0.00 0.00 0.00 0.00 0.00 0.00 0.00 0.00 0.00 0.02 0.05 0.11
0.01 0.03 0.02 0.01 0.00 0.00 0.01 0.01 0.00 0.00 0.00 0.00 0.00 0.00 0.00 0.00 0.00 0.00 0.00 0.00 0.00 0.00 0.01 0.01 0.00 0.00 0.00 0.00 0.00 0.00 0.00 0.00 0.00 0.00 0.00 0.00 0.00 0.00 0.00 0.00 0.03 0.09 0.09 0.13
0.01 0.00 0.00 0.00 0.01 0.00 0.00 0.00 0.00 0.00 0.00 0.00 0.00 0.00 0.00 0.00 0.00 0.00 0.00 0.00 0.00 0.00 0.00 0.00 0.02 0.01 0.02 0.06 0.07 0.02 0.00 0.00 0.01 0.01 0.00 0.00 0.00 0.00 0.00 0.02 0.08 0.12 0.16 0.15
0.00 0.00 0.00 0.00 0.00 0.00 0.00 0.00 0.00 0.00 0.00 0.00 0.00 0.00 0.00 0.00 0.00 0.00 0.00 0.00 0.00 0.00 0.00 0.00 0.00 0.01 0.02 0.04 0.03 0.01 0.01 0.01 0.04 0.05 0.01 0.00 0.00 0.04 0.16 0.18 0.20 0.23 0.24 0.25
0.00 0.00 0.00 0.00 0.00 0.00 0.00 0.00 0.00 0.00 0.00 0.00 0.00 0.00 0.00 0.00 0.00 0.00 0.00 0.00 0.00 0.00 0.00 0.00 0.00 0.00 0.00 0.01 0.05 0.04 0.05 0.04 0.03 0.04 0.03 0.01 0.07 0.19 0.14 0.11 0.18 0.20 0.16 0.12
0.00 0.00 0.00 0.00 0.00 0.00 0.00 0.00 0.00 0.00 0.00 0.00 0.00 0.00 0.00 0.00 0.00 0.00 0.00 0.00 0.00 0.00 0.00 0.00 0.00 0.00 0.00 0.00 0.03 0.03 0.03 0.01 0.02 0.06 0.07 0.12 0.17 0.13 0.03 0.03 0.04 0.07 0.11 0.05
0.00 0.00 0.00 0.00 0.00 0.00 0.00 0.00 0.00 0.00 0.00 0.00 0.00 0.00 0.00 0.00 0.00 0.00 0.00 0.00 0.00 0.00 0.00 0.00 0.00 0.00 0.00 0.00 0.01 0.03 0.03 0.02 0.01 0.09 0.16 0.16 0.18 0.17 0.12 0.12 0.09 0.08 0.03 0.01
0.00 0.00 0.00 0.00 0.00 0.00 0.00 0.00 0.00 0.00 0.00 0.00 0.00 0.00 0.00 0.00 0.00 0.00 0.00 0.00 0.00 0.00 0.00 0.00 0.00 0.00 0.00 0.00 0.01 0.04 0.08 0.14 0.06 0.11 0.17 0.16 0.16 0.16 0.21 0.19 0.12 0.05 0.01 0.00
0.00 0.00 0.00 0.00 0.00 0.00 0.00 0.00 0.00 0.00 0.00 0.00 0.00 0.00 0.00 0.00 0.00 0.00 0.00 0.00 0.00 0.00 0.00 0.00 0.00 0.00 0.00 0.00 0.00 0.06 0.13 0.21 0.18 0.09 0.12 0.12 0.14 0.15 0.14 0.11 0.06 0.01 0.00 0.00
0.00 0.00 0.00 0.00 0.00 0.00 0.00 0.00 0.00 0.00 0.00 0.00 0.00 0.00 0.00 0.00 0.00 0.00 0.00 0.00 0.00 0.00 0.00 0.00 0.00 0.00 0.00 0.00 0.00 0.03 0.08 0.07 0.15 0.13 0.10 0.08 0.05 0.04 0.02 0.01 0.00 0.00 0.00 0.00
0.00 0.00 0.00 0.00 0.00 0.00 0.00 0.00 0.00 0.00 0.00 0.00 0.00 0.00 0.00 0.00 0.00 0.00 0.00 0.00 0.00 0.00 0.00 0.00 0.00 0.00 0.00 0.00 0.01 0.06 0.08 0.04 0.05 0.04 0.02 0.01 0.00 0.00 0.00 0.00 0.00 0.00 0.00 0.00
0.00 0.00 0.00 0.00 0.00 0.00 0.00 0.00 0.00 0.00 0.00 0.00 0.00 0.00 0.00 0.00 0.00 0.00 0.00 0.00 0.00 0.00 0.00 0.00 0.00 0.00 0.01 0.02 0.00 0.01 0.01 0.02 0.01 0.00 0.00 0.00 0.00 0.00 0.00 0.00 0.00 0.00 0.00 0.00
0.00 0.00 0.00 0.00 0.00 0.00 0.00 0.00 0.00 0.00 0.00 0.00 0.00 0.00 0.00 0.00 0.00 0.00 0.00 0.00 0.00 0.00 0.00 0.00 0.00 0.00 0.02 0.03 0.00 0.00 0.00 0.00 0.00 0.00 0.00 0.00 0.00 0.00 0.00 0.00 0.00 0.00 0.00 0.00
0.00 0.00 0.00 0.00 0.00 0.00 0.00 0.00 0.00 0.00 0.00 0.00 0.00 0.00 0.00 0.00 0.00 0.00 0.01 0.01 0.01 0.00 0.00 0.00 0.00 0.02 0.05 0.00 0.00 0.00 0.00 0.00 0.00 0.00 0.00 0.00 0.00 0.00 0.00 0.00 0.00 0.00 0.00 0.00
0.00 0.00 0.00 0.00 0.00 0.00 0.00 0.00 0.00 0.00 0.00 0.00 0.00 0.00 0.00 0.00 0.00 0.03 0.04 0.03 0.00 0.00 0.00 0.03 0.06 0.07 0.03 0.00 0.00 0.00 0.00 0.00 0.00 0.00 0.00 0.00 0.00 0.00 0.00 0.00 0.00 0.00 0.00 0.00
0.00 0.00 0.00 0.00 0.00 0.00 0.00 0.00 0.00 0.00 0.00 0.00 0.00 0.00 0.00 0.00 0.01 0.04 0.01 0.00 0.00 0.00 0.00 0.04 0.08 0.04 0.00 0.00 0.00 0.00 0.00 0.00 0.00 0.00 0.00 0.00 0.00 0.00 0.00 0.00 0.00 0.00 0.00 0.00
0.00 0.00 0.00 0.00 0.00 0.00 0.00 0.00 0.00 0.00 0.00 0.00 0.00 0.00 0.01 0.00 0.00 0.00 0.00 0.00 0.00 0.00 0.00 0.02 0.12 0.07 0.00 0.00 0.00 0.00 0.00 0.00 0.00 0.00 0.00 0.00 0.00 0.00 0.00 0.00 0.00 0.00 0.00 0.00
0.00 0.00 0.00 0.00 0.00 0.00 0.00 0.00 0.00 0.00 0.00 0.00 0.00 0.00 0.00 0.00 0.00 0.00 0.00 0.00 0.00 0.00 0.02 0.01 0.02 0.04 0.00 0.00 0.00 0.00 0.00 0.00 0.00 0.00 0.00 0.00 0.00 0.00 0.00 0.00 0.00 0.00 0.00 0.00
0.00 0.00 0.00 0.00 0.00 0.00 0.00 0.00 0.00 0.00 0.00 0.00 0.00 0.00 0.00 0.00 0.00 0.00 0.00 0.00 0.02 0.01 0.03 0.05 0.01 0.00 0.00 0.00 0.00 0.00 0.00 0.00 0.00 0.00 0.00 0.00 0.00 0.00 0.00 0.00 0.00 0.00 0.00 0.00
0.00 0.00 0.00 0.00 0.00 0.00 0.00 0.00 0.00 0.00 0.00 0.00 0.00 0.00 0.00 0.00 0.00 0.00 0.00 0.00 0.01 0.02 0.06 0.09 0.11 0.01 0.00 0.00 0.00 0.00 0.00 0.00 0.00 0.00 0.00 0.00 0.00 0.00 0.00 0.00 0.00 0.00 0.00 0.00
0.00 0.00 0.00 0.00 0.00 0.00 0.00 0.00 0.00 0.00 0.00 0.00 0.00 0.00 0.01 0.01 0.00 0.00 0.00 0.00 0.00 0.00 0.02 0.05 0.11 0.05 0.00 0.00 0.00 0.00 0.00 0.00 0.00 0.00 0.00 0.00 0.00 0.00 0.00 0.00 0.00 0.00 0.00 0.00
0.00 0.00 0.00 0.00 0.00 0.00 0.00 0.00 0.00 0.00 0.00 0.00 0.01 0.01 0.02 0.02 0.01 0.00 0.00 0.00 0.01 0.01 0.02 0.04 0.08 0.05 0.01 0.00 0.00 0.00 0.00 0.00 0.00 0.00 0.00 0.00 0.00 0.00 0.00 0.00 0.00 0.00 0.00 0.00
0.00 0.00 0.00 0.00 0.00 0.00 0.00 0.00 0.00 0.00 0.00 0.01 0.04 0.03 0.01 0.01 0.00 0.00 0.00 0.00 0.00 0.00 0.00 0.01 0.00 0.01 0.00 0.00 0.00 0.00 0.00 0.00 0.00 0.00 0.00 0.00 0.00 0.00 0.00 0.00 0.00 0.00 0.00 0.00
MSLP
1009.60 1010.06 1010.21 1009.98 1010.75 1010.84 1011.19 1011.22 1011.18 1010.34 1009.84 1010.00 1010.15 1010.01 1009.65 1009.93 1010.50 1010.62 1010.66 1010.87 1011.01 1011.15 1010.91 1011.24 1011.45 1011.88 1012.53 1013.33 1013.87 1014.18 1014.84 1015.06 1015.36 1015.86 1016.31 1016.49 1016.54 1016.35 1016.30 1016.17 1016.30 1016.63 1016.79 1016.88
1010.24 1010.45 1010.52 1010.74 1010.67 1010.85 1011.00 1011.24 1011.02 1010.51 1010.23 1010.35 1010.04 1009.80 1009.30 1009.83 1009.76 1009.77 1010.03 1010.20 1010.52 1010.71 1010.78 1010.82 1011.15 1011.50 1011.75 1012.25 1013.15 1013.89 1014.01 1014.61 1015.03 1015.20 1015.36 1015.51 1015.73 1015.91 1016.09 1016.08 1016.20 1016.21 1016.42 1016.58
1010.64 1010.58 1010.24 1010.21 1010.27 1010.46 1010.49 1010.74 1010.68 1010.32 1010.20 1010.18 1010.60 1009.89 1009.49 1009.44 1009.42 1009.38 1009.59 1009.73 1009.96 1010.03 1010.42 1010.72 1010.76 1010.90 1011.39 1011.77 1012.15 1012.96 1013.63 1014.00 1014.61 1014.98 1015.34 1015.63 1015.91 1016.18 1016.24 1016.23 1016.19 1016.40 1016.26 1016.45
1010.85 1010.36 1010.01 1009.83 1009.84 1009.97 1010.09 1010.09 1010.76 1010.99 1011.24 1011.21 1011.28 1011.21 1009.88 1009.50 1009.49 1009.37 1009.33 1009.52 1009.49 1009.69 1009.98 1010.17 1010.41 1010.77 1010.57 1010.56 1011.70 1012.37 1013.26 1013.81 1014.17 1014.76 1015.31 1015.24 1015.43 1016.11 1016.14 1016.13 1016.40 1016.48 1016.48 1016.46
1010.65 1010.41 1010.16 1010.29 1009.59 1009.94 1010.20 1010.44 1011.16 1011.52 1012.24 1012.56 1012.46 1012.63 1009.82 1009.74 1009.46 1009.21 1009.20 1009.31 1009.37 1009.51 1009.62 1009.68 1009.86 1009.99 1010.72 1011.43 1011.69 1012.12 1012.85 1013.65 1014.13 1014.48 1014.91 1015.59 1015.73 1015.81 1016.10 1016.51 1016.68 1017.15 1017.33 1017.44
1010.53 1010.03 1010.09 1009.77 1009.52 1009.97 1010.30 1010.99 1011.89 1012.61 1013.33 1013.75 1013.08 1012.90 1010.62 1009.73 1009.35 1009.17 1009.14 1008.93 1009.04 1009.47 1009.50 1009.49 1009.84 1009.92 1010.24 1010.74 1011.59 1012.11 1012.87 1013.25 1013.83 1014.48 1014.88 1015.20 1015.74 1016.23 1016.78 1017.13 1017.42 1017.98 1018.11 1018.24
1010.73 1010.05 1009.42 1009.35 1009.75 1010.06 1010.81 1011.96 1012.99 1013.97 1014.49 1014.11 1013.59 1013.38 1010.70 1009.29 1009.21 1009.25 1009.09 1009.13 1009.22 1009.43 1009.72 1009.87 1010.07 1009.82 1010.20 1010.35 1011.35 1011.54 1012.38 1013.15 1013.75 1014.29 1014.80 1015.65 1016.19 1016.66 1017.04 1017.32 1017.47 1017.78 1018.47 1018.36
1010.44 1009.83 1009.09 1008.73 1009.22 1009.98 1011.12 1011.99 1012.70 1013.68 1014.52 1014.10 1013.75 1012.65 1009.88 1009.37 1009.28 1009.42 1009.49 1009.73 1009.97 1010.18 1010.35 1010.51 1010.64 1010.43 1010.34 1010.68 1010.90 1011.33 1011.75 1012.88 1013.54 1014.25 1015.24 1015.68 1016.24 1016.71 1017.21 1017.04 1017.63 1018.22 1017.98 1017.46
1010.03 1009.32 1008.58 1008.64 1008.93 1009.60 1011.18 1011.83 1012.01 1012.92 1014.31 1014.47 1013.08 1011.75 1009.67 1009.36 1009.60 1009.77 1010.02 1010.22 1010.47 1010.74 1011.00 1011.15 1011.02 1010.95 1010.57 1010.71 1010.52 1011.33 1012.50 1012.86 1013.64 1014.59 1015.22 1016.02 1016.27 1016.35 1016.59 1017.48 1018.06 1018.53 1018.87 1019.26
1009.37 1009.56 1008.68 1008.64 1008.85 1009.51 1009.90 1010.80 1011.97 1013.31 1014.45 1014.58 1013.37 1012.48 1011.15 1009.96 1009.79 1009.97 1010.23 1010.53 1010.87 1011.23 1011.43 1011.44 1011.37 1011.27 1011.20 1010.68 1010.79 1011.26 1012.30 1012.73 1013.64 1014.49 1015.36 1016.70 1017.09 1016.21 1016.99 1018.02 1018.62 1019.13 1018.98 1019.27
1009.15 1009.69 1009.35 1009.09 1008.97 1009.19 1010.12 1010.76 1012.16 1013.44 1014.31 1014.58 1013.97 1012.35 1010.18 1009.86 1009.61 1009.80 1009.96 1010.18 1010.44 1010.73 1011.09 1011.51 1011.77 1011.79 1011.54 1011.27 1011.07 1011.48 1012.26 1012.86 1013.34 1013.91 1014.71 1015.81 1016.95 1014.73 1017.81 1017.83 1018.50 1019.26 1019.62 1019.68
1009.21 1010.11 1010.28 1009.74 1009.20 1009.30 1009.62 1010.52 1011.87 1013.66 1014.58 1014.57 1013.92 1011.61 1010.34 1010.41 1010.02 1009.88 1010.29 1010.53 1010.73 1010.92 1011.25 1011.48 1011.72 1011.81 1011.80 1011.84 1012.14 1012.42 1012.76 1013.62 1013.79 1014.23 1014.61 1015.39 1016.91 1017.02 1017.09 1017.92 1018.78 1019.36 1019.86 1020.16
1009.16 1010.32 1010.89 1010.40 1010.17 1009.66 1009.90 1010.45 1011.51 1012.95 1013.76 1014.06 1013.68 1011.45 1010.39 1010.19 1010.00 1010.04 1009.69 1010.06 1010.50 1010.81 1011.37 1011.73 1011.91 1012.10 1012.24 1012.48 1012.68 1012.98 1013.34 1013.84 1013.80 1014.22 1014.53 1015.61 1016.96 1017.00 1017.62 1018.58 1019.27 1019.73 1020.22 1020.30
1009.09 1010.94 1011.21 1011.14 1010.69 1010.33 1010.43 1010.50 1011.01 1012.12 1013.21 1013.16 1012.53 1011.22 1010.42 1010.29 1010.18 1010.22 1010.61 1010.71 1010.87 1011.19 1011.67 1012.05 1012.46 1012.74 1012.75 1012.80 1013.05 1013.42 1013.92 1014.27 1014.67 1014.91 1015.56 1016.51 1017.09 1017.62 1018.25 1018.79 1019.39 1019.74 1019.87 1019.92
1009.90 1011.24 1011.42 1011.12 1010.69 1010.53 1010.34 1010.31 1010.66 1011.42 1011.33 1011.83 1010.99 1011.01 1009.75 1009.13 1009.27 1009.28 1009.93 1010.50 1010.95 1011.67 1011.98 1012.11 1012.49 1012.96 1013.29 1013.45 1013.66 1013.98 1014.54 1014.87 1015.15 1015.62 1016.18 1016.67 1017.13 1018.00 1018.51 1018.74 1019.19 1019.72 1020.13 1020.22
1010.84 1011.61 1012.00 1011.73 1010.83 1010.76 1010.39 1009.91 1009.86 1010.13 1010.50 1010.69 1010.43 1010.08 1009.35 1008.99 1009.22 1009.50 1009.52 1010.46 1011.04 1011.28 1011.39 1011.87 1012.49 1013.00 1013.46 1013.84 1014.07 1014.35 1014.65 1015.34 1015.66 1016.14 1016.59 1016.88 1017.17 1017.70 1018.28 1018.88 1019.27 1019.80 1020.18 1020.16
1011.51 1012.20 1013.00 1012.45 1011.46 1010.95 1010.48 1009.16 1009.04 1009.04 1009.33 1009.71 1009.95 1009.36 1009.43 1009.41 1009.79 1010.47 1010.87 1010.94 1011.23 1011.51 1011.70 1012.06 1012.32 1012.62 1013.39 1013.76 1014.15 1014.58 1014.66 1015.53 1015.94 1016.13 1016.70 1016.91 1017.23 1017.82 1018.21 1018.84 1019.02 1019.39 1019.90 1020.20
1011.99 1012.91 1013.31 1013.36 1012.42 1011.64 1009.37 1008.69 1008.47 1008.81 1008.93 1009.17 1009.50 1009.19 1009.73 1010.14 1010.23 1010.20 1010.56 1010.83 1011.22 1011.61 1011.79 1012.03 1012.37 1012.97 1013.63 1013.95 1014.32 1014.68 1015.03 1015.33 1016.00 1016.32 1016.82 1017.26 1017.44 1017.96 1018.44 1018.80 1019.19 1019.49 1019.59 1019.71
1011.98 1013.12 1013.99 1014.00 1013.12 1011.43 1009.38 1008.66 1008.49 1008.70 1008.76 1008.57 1009.18 1009.66 1009.79 1010.03 1010.05 1010.36 1010.56 1010.66 1010.28 1011.01 1011.57 1011.94 1012.44 1012.64 1012.90 1014.05 1014.26 1014.65 1015.30 1015.46 1016.00 1016.35 1016.74 1017.10 1017.37 1017.90 1018.21 1018.52 1018.79 1018.95 1019.21 1019.26
1012.51 1012.83 1013.40 1014.24 1013.49 1011.78 1009.52 1008.61 1008.50 1008.94 1009.17 1008.80 1009.24 1009.71 1009.98 1010.12 1010.36 1010.62 1010.25 1010.15 1010.41 1010.90 1011.12 1011.44 1012.16 1012.75 1013.26 1013.74 1014.30 1014.80 1015.37 1015.60 1015.93 1016.09 1016.43 1016.81 1017.14 1017.58 1017.95 1018.18 1018.39 1018.66 1018.72 1018.84
1012.70 1013.29 1013.64 1013.72 1013.06 1011.20 1009.35 1008.90 1008.80 1009.43 1009.52 1008.97 1009.30 1009.58 1009.89 1009.88 1009.07 1009.51 1009.44 1009.74 1010.14 1010.43 1010.79 1011.19 1011.70 1012.40 1013.06 1013.62 1014.13 1014.77 1015.25 1015.47 1015.42 1015.86 1016.19 1016.59 1016.91 1017.14 1017.37 1017.80 1018.00 1018.16 1018.43 1018.61
1012.66 1013.13 1013.57 1013.77 1012.78 1011.05 1009.52 1009.27 1009.35 1009.23 1008.96 1009.05 1009.13 1009.12 1009.14 1008.62 1009.02 1009.57 1009.33 1009.74 1010.30 1010.39 1010.60 1010.99 1011.66 1012.33 1012.91 1013.56 1013.93 1014.62 1014.96 1014.94 1015.35 1015.63 1015.96 1016.45 1016.65 1016.82 1017.12 1017.34 1017.46 1017.81 1018.16 1018.30
1012.53 1012.06 1012.48 1012.80 1011.34 1010.18 1009.88 1009.61 1009.24 1009.25 1009.20 1008.98 1008.96 1008.45 1008.38 1008.63 1009.20 1009.27 1009.29 1009.87 1010.31 1010.44 1010.50 1010.84 1011.56 1012.19 1012.77 1013.36 1013.79 1014.26 1014.42 1014.84 1015.20 1015.52 1015.86 1016.16 1016.38 1016.62 1016.83 1017.01 1017.28 1017.64 1017.84 1018.02
1011.68 1011.63 1012.02 1012.02 1010.56 1009.94 1009.53 1009.32 1009.23 1008.98 1008.89 1008.55 1008.22 1008.42 1008.43 1008.68 1008.98 1009.00 1009.33 1009.63 1010.14 1010.40 1010.67 1010.92 1011.43 1011.99 1012.66 1013.14 1013.52 1013.63 1014.09 1014.61 1014.97 1015.34 1015.60 1015.75 1016.08 1016.26 1016.52 1016.75 1017.00 1017.26 1017.41 1017.50
1011.53 1011.55 1011.48 1011.27 1010.35 1009.75 1009.16 1008.93 1008.78 1008.60 1008.50 1008.41 1007.91 1008.00 1008.20 1008.54 1008.34 1008.68 1009.06 1009.33 1009.69 1010.15 1010.55 1010.84 1011.26 1011.69 1012.01 1012.67 1013.15 1013.42 1013.91 1014.30 1014.69 1015.11 1015.19 1015.48 1015.75 1015.91 1016.18 1016.40 1016.45 1016.58 1016.48 1016.56
1011.06 1010.69 1010.79 1010.08 1009.28 1009.29 1008.78 1008.30 1008.34 1008.47 1008.12 1007.93 1007.61 1007.27 1007.59 1008.12 1007.82 1008.35 1008.63 1008.87 1009.40 1010.02 1010.47 1010.77 1011.12 1011.49 1011.84 1012.31 1012.75 1013.12 1013.47 1013.81 1014.13 1014.65 1015.00 1015.25 1015.56 1015.71 1015.84 1015.98 1015.90 1015.83 1015.79 1015.90
Thickness
5800 5785 5780 5789 5783 5783 5774 5768 5762 5782 5797 5789 5783 5789 5798 5804 5801 5798 5799 5799 5799 5798 5806 5807 5807 5806 5801 5794 5792 5792 5786 5786 5786 5782 5780 5780 5778 5783 5785 5785 5783 5779 5777 5776
5787 5776 5788 5792 5792 5782 5775 5765 5768 5787 5794 5789 5788 5791 5806 5804 5806 5807 5805 5805 5804 5802 5803 5804 5805 5807 5807 5802 5794 5791 5792 5787 5785 5787 5787 5787 5785 5783 5781 5780 5782 5782 5779 5775
5778 5787 5800 5797 5793 5784 5783 5774 5774 5778 5791 5795 5784 5783 5794 5806 5810 5814 5814 5815 5810 5809 5802 5800 5804 5807 5807 5803 5801 5795 5792 5791 5787 5786 5785 5782 5780 5777 5776 5776 5779 5779 5778 5775
5784 5800 5798 5797 5792 5793 5771 5796 5790 5784 5777 5763 5784 5749 5787 5800 5800 5808 5812 5811 5811 5809 5807 5803 5806 5805 5811 5813 5806 5799 5793 5788 5787 5783 5778 5781 5778 5770 5772 5775 5773 5771 5769 5768
5786 5786 5786 5777 5793 5795 5785 5794 5783 5783 5764 5761 5760 5751 5779 5793 5793 5799 5804 5810 5811 5809 5806 5804 5808 5811 5807 5802 5802 5799 5794 5788 5784 5781 5777 5770 5770 5772 5769 5766 5764 5759 5757 5754
5790 5806 5798 5794 5803 5798 5799 5785 5771 5758 5749 5732 5751 5753 5782 5792 5798 5801 5803 5808 5809 5804 5806 5808 5807 5808 5806 5805 5797 5794 5789 5787 5783 5776 5773 5770 5764 5761 5756 5753 5749 5744 5743 5742
5778 5786 5804 5808 5790 5793 5782 5752 5725 5726 5722 5724 5744 5741 5772 5795 5800 5801 5801 5802 5804 5804 5803 5799 5796 5803 5801 5801 5793 5792 5787 5782 5778 5774 5769 5761 5756 5752 5748 5744 5741 5736 5732 5731
5764 5759 5792 5807 5795 5779 5768 5757 5729 5720 5715 5732 5741 5734 5774 5795 5796 5798 5799 5799 5797 5793 5793 5789 5789 5793 5798 5797 5793 5790 5788 5778 5775 5769 5760 5757 5751 5745 5736 5732 5728 5728 5726 5716
5759 5770 5805 5804 5799 5792 5765 5749 5768 5740 5723 5720 5737 5755 5790 5793 5789 5792 5792 5791 5788 5789 5786 5783 5783 5783 5789 5793 5798 5791 5779 5777 5771 5763 5758 5749 5744 5744 5727 5722 5718 5716 5710 5708
5787 5762 5797 5799 5798 5789 5778 5778 5747 5724 5718 5714 5723 5732 5746 5777 5782 5785 5785 5784 5782 5782 5782 5783 5783 5783 5786 5793 5793 5789 5779 5776 5766 5760 5751 5735 5730 5737 5719 5711 5708 5703 5705 5703
5787 5774 5776 5788 5780 5771 5764 5757 5738 5729 5712 5703 5693 5725 5767 5776 5784 5782 5782 5786 5787 5785 5783 5780 5777 5778 5781 5785 5787 5782 5775 5768 5762 5756 5749 5734 5721 5715 5705 5706 5701 5695 5694 5696
5789 5759 5749 5774 5783 5783 5779 5766 5740 5713 5716 5697 5692 5711 5768 5765 5773 5777 5777 5777 5779 5780 5778 5777 5775 5775 5775 5774 5771 5769 5767 5757 5752 5743 5739 5729 5712 5706 5703 5697 5694 5693 5690 5686
5787 5756 5734 5748 5760 5775 5767 5762 5740 5716 5703 5700 5694 5710 5758 5761 5766 5773 5777 5775 5772 5772 5769 5768 5767 5766 5766 5762 5758 5755 5751 5746 5745 5740 5736 5725 5712 5708 5699 5691 5686 5683 5678 5676
5785 5745 5744 5724 5743 5754 5751 5755 5749 5726 5699 5704 5701 5721 5745 5747 5752 5759 5759 5763 5764 5762 5760 5758 5754 5752 5753 5752 5748 5743 5736 5732 5727 5722 5715 5705 5699 5695 5689 5684 5678 5674 5673 5672
5775 5752 5751 5751 5750 5749 5747 5746 5742 5723 5724 5711 5723 5712 5742 5749 5747 5757 5757 5757 5755 5749 5746 5746 5743 5739 5737 5735 5732 5728 5721 5717 5714 5708 5703 5697 5693 5686 5681 5678 5674 5667 5662 5661
5761 5747 5738 5745 5750 5738 5736 5740 5737 5731 5730 5716 5719 5721 5739 5742 5744 5747 5751 5746 5743 5743 5743 5739 5734 5729 5724 5720 5717 5712 5711 5703 5698 5694 5690 5687 5684 5681 5677 5672 5668 5662 5657 5658
5755 5733 5720 5717 5737 5731 5721 5738 5740 5743 5739 5731 5718 5733 5732 5732 5730 5728 5727 5730 5729 5728 5729 5727 5725 5723 5714 5711 5707 5704 5701 5692 5687 5685 5682 5681 5679 5674 5673 5668 5666 5662 5654 5648
5736 5726 5711 5708 5716 5698 5737 5746 5743 5734 5736 5730 5725 5728 5725 5721 5722 5724 5722 5720 5717 5716 5717 5718 5715 5709 5702 5701 5699 5697 5691 5685 5678 5676 5675 5673 5673 5669 5666 5663 5658 5653 5651 5649
5740 5717 5701 5700 5690 5710 5740 5738 5736 5726 5724 5734 5723 5722 5723 5721 5722 5716 5717 5718 5717 5713 5710 5708 5704 5701 5696 5687 5689 5690 5685 5682 5675 5672 5670 5669 5669 5665 5663 5660 5657 5653 5649 5647
5728 5719 5713 5681 5692 5684 5718 5739 5739 5726 5697 5728 5723 5716 5714 5713 5702 5701 5712 5717 5712 5709 5708 5704 5699 5692 5684 5681 5682 5681 5678 5676 5672 5672 5671 5669 5667 5662 5660 5657 5653 5649 5647 5645
5712 5703 5703 5682 5681 5696 5723 5730 5730 5695 5695 5720 5716 5712 5707 5705 5715 5712 5713 5713 5711 5708 5705 5702 5699 5692 5687 5683 5680 5677 5674 5672 5674 5671 5668 5666 5664 5662 5659 5654 5650 5648 5645 5641
5710 5697 5687 5674 5678 5681 5724 5721 5704 5705 5712 5711 5710 5709 5705 5711 5708 5704 5707 5706 5704 5703 5702 5699 5694 5690 5686 5682 5681 5676 5672 5673 5670 5668 5666 5662 5660 5658 5654 5651 5649 5645 5640 5637
5697 5704 5693 5687 5688 5708 5708 5707 5709 5702 5700 5706 5704 5708 5707 5702 5696 5698 5702 5700 5700 5700 5700 5696 5691 5686 5682 5679 5677 5673 5673 5669 5667 5665 5662 5659 5656 5653 5650 5647 5643 5639 5636 5633
5716 5705 5694 5691 5706 5702 5702 5701 5699 5699 5697 5703 5705 5702 5700 5698 5696 5697 5697 5697 5695 5695 5694 5691 5687 5682 5678 5676 5673 5673 5669 5666 5664 5660 5658 5656 5651 5649 5646 5643 5640 5636 5634 5632
5704 5698 5688 5683 5693 5693 5697 5695 5693 5693 5694 5696 5702 5700 5697 5691 5696 5698 5696 5695 5694 5692 5689 5685 5682 5680 5679 5673 5669 5669 5666 5664 5661 5657 5656 5653 5650 5647 5643 5640 5639 5637 5638 5636
5695 5692 5682 5684 5695 5686 5686 5691 5690 5685 5690 5695 5697 5700 5699 5695 5699 5698 5698 5697 5693 5688 5682 5679 5678 5677 5675 5671 5669 5667 5665 5664 5661 5656 5652 5648 5644 5642 5639 5636 5637 5636 5636 5634